Facebook Twitter

Wetterstation Parma

aktuelles Wetter
  Temperatur Wetter Niederschlag Luftdruck Wind
Mo, 18:50 Uhr 19° Dunst - 1019 hPa 3 km/h O
Mo, 17:50 Uhr 20° Dunst - 1019 hPa 2 km/h O
Mo, 16:50 Uhr 20° Dunst - 1020 hPa 3 km/h O
Mo, 15:50 Uhr 21° Dunst - 1020 hPa 2 km/h
Mo, 15:16 Uhr 20° Dunst - 1020 hPa 2 km/h
Mo, 14:50 Uhr 20° Dunst - 1021 hPa 3 km/h
Mo, 13:50 Uhr 20° Dunst - 1021 hPa 3 km/h
Mo, 12:50 Uhr 20° Dunst - 1022 hPa 5 km/h
Mo, 11:50 Uhr 19° Dunst - 1022 hPa 5 km/h
Mo, 10:50 Uhr 17° Dunst - 1023 hPa 13 km/h O
Mo, 09:50 Uhr 17° Dunst - 1023 hPa 10 km/h
Mo, 08:50 Uhr 14° Nebel - 1023 hPa 2 km/h
Mo, 07:50 Uhr 14° Nebel - 1022 hPa 2 km/h
Mo, 06:58 Uhr 14° Dunst - 1022 hPa 8 km/h S
So, 22:50 Uhr 14° Dunst - 1024 hPa 5 km/h SW
So, 21:50 Uhr 15° Dunst - 1023 hPa 3 km/h S
So, 20:50 Uhr 16° Dunst - 1023 hPa 2 km/h NO
So, 19:50 Uhr 18° Dunst - 1023 hPa 5 km/h NW
So, 18:50 Uhr 18° Dunst - 1023 hPa 8 km/h N
So, 17:50 Uhr 19° Dunst - 1023 hPa 3 km/h

Alle Zeitangaben MESZ